"2014/01/01",1006.2,1008.4,1002.8
"2014/01/02",1012.1,1018.9,1007.1
"2014/01/03",1016.3,1019.9,1011.0
"2014/01/04",1010.6,1013.6,1008.2
"2014/01/05",1017.8,1020.2,1013.5
"2014/01/06",1022.5,1026.8,1019.7
"2014/01/07",1026.8,1030.1,1022.8
"2014/01/08",1016.1,1022.8,1004.0
"2014/01/09",1008.1,1016.4,1001.1
"2014/01/10",1020.9,1023.9,1016.1
"2014/01/11",1024.8,1026.5,1023.2
"2014/01/12",1019.2,1024.9,1014.5
"2014/01/13",1020.3,1025.0,1014.8
"2014/01/14",1027.3,1029.1,1024.6
"2014/01/15",1026.4,1029.1,1024.4
"2014/01/16",1023.3,1025.8,1021.3
"2014/01/17",1019.7,1021.3,1017.9
"2014/01/18",1016.8,1020.5,1012.6
"2014/01/19",1018.1,1024.0,1012.6
"2014/01/20",1019.7,1025.1,1011.1
"2014/01/21",1011.6,1015.6,1008.8
"2014/01/22",1018.1,1020.6,1015.2
"2014/01/23",1022.7,1026.5,1019.8
"2014/01/24",1023.1,1026.6,1020.0
"2014/01/25",1017.6,1020.4,1012.1
"2014/01/26",1010.6,1019.3,1006.4
"2014/01/27",1024.0,1026.1,1019.3
"2014/01/28",1017.6,1023.9,1013.4
"2014/01/29",1022.4,1025.1,1016.8
"2014/01/30",1015.7,1023.2,1004.8
"2014/01/31",1014.5,1024.1,1004.5
"2014/02/01",1022.2,1025.0,1019.1
"2014/02/02",1011.6,1019.2,1006.8
"2014/02/03",1004.4,1007.9,1000.0
"2014/02/04",1006.8,1013.0,1001.4
"2014/02/05",1018.2,1022.7,1012.8
"2014/02/06",1022.9,1024.7,1021.1
"2014/02/07",1022.0,1023.9,1020.1
"2014/02/08",1013.2,1021.0,1001.6
"2014/02/09",1007.7,1013.6,1001.7
"2014/02/10",1017.4,1019.4,1013.5
"2014/02/11",1021.1,1022.7,1018.7
"2014/02/12",1021.0,1022.0,1019.4
"2014/02/13",1024.6,1027.8,1021.0
"2014/02/14",1026.9,1030.6,1017.8
"2014/02/15",1003.4,1017.9, 996.9
"2014/02/16",1013.0,1021.9,1003.0
"2014/02/17",1020.0,1022.1,1017.2
"2014/02/18",1018.4,1019.8,1016.2
"2014/02/19",1020.1,1022.4,1018.6
"2014/02/20",1022.5,1024.8,1020.8
"2014/02/21",1022.3,1025.8,1019.7
"2014/02/22",1026.9,1029.0,1025.4
"2014/02/23",1028.8,1030.4,1027.2
"2014/02/24",1027.9,1030.2,1026.3
"2014/02/25",1025.0,1027.1,1021.6
"2014/02/26",1029.8,1031.8,1026.9
"2014/02/27",1024.1,1029.9,1016.3
"2014/02/28",1017.1,1021.6,1012.7
"2014/03/01",1018.8,1021.5,1016.0
"2014/03/02",1015.3,1017.3,1013.6
"2014/03/03",1022.3,1029.1,1015.8
"2014/03/04",1028.7,1031.5,1025.0
"2014/03/05",1012.1,1025.1,1000.8
"2014/03/06",1013.9,1020.6,1003.9
"2014/03/07",1020.1,1022.4,1017.7
"2014/03/08",1018.3,1020.8,1015.8
"2014/03/09",1014.1,1018.7,1008.0
"2014/03/10",1012.4,1020.6,1007.5
"2014/03/11",1023.5,1025.7,1020.6
"2014/03/12",1019.9,1022.7,1017.1
"2014/03/13",1006.5,1018.0, 991.2
"2014/03/14",1004.9,1013.2, 993.9
"2014/03/15",1018.6,1021.6,1013.1
"2014/03/16",1018.7,1022.1,1014.2
"2014/03/17",1024.4,1027.1,1022.0
"2014/03/18",1012.3,1022.7,1004.5
"2014/03/19",1017.6,1021.8,1009.3
"2014/03/20",1006.3,1019.8, 993.1
"2014/03/21",1000.3,1011.4, 992.9
"2014/03/22",1018.1,1022.0,1011.4
"2014/03/23",1022.6,1024.1,1021.0
"2014/03/24",1023.5,1026.4,1020.8
"2014/03/25",1016.1,1020.9,1012.5
"2014/03/26",1013.5,1016.7,1008.9
"2014/03/27",1012.0,1018.2,1007.1
"2014/03/28",1019.9,1022.5,1018.0
"2014/03/29",1015.9,1019.4,1010.8
"2014/03/30", 998.6,1010.9, 985.3
"2014/03/31",1004.8,1013.0, 992.4
"2014/04/01",1018.6,1022.1,1012.9
"2014/04/02",1022.7,1024.4,1021.3
"2014/04/03",1016.0,1021.5,1005.8
"2014/04/04", 996.1,1005.9, 989.6
"2014/04/05",1009.1,1012.3,1001.4
"2014/04/06",1009.2,1014.2,1005.7
"2014/04/07",1014.3,1016.7,1012.5
"2014/04/08",1013.4,1017.0,1011.4
"2014/04/09",1017.0,1019.4,1015.0
"2014/04/10",1010.9,1015.9,1004.9
"2014/04/11",1017.6,1019.8,1014.8
"2014/04/12",1018.4,1020.4,1015.8
"2014/04/13",1019.4,1021.3,1017.9
"2014/04/14",1017.9,1019.2,1016.6
"2014/04/15",1014.7,1018.3,1010.3
"2014/04/16",1012.6,1015.0,1010.6
"2014/04/17",1014.2,1016.4,1012.4
"2014/04/18",1015.4,1017.0,1012.8
"2014/04/19",1019.4,1025.0,1015.0
"2014/04/20",1024.3,1025.9,1022.5
"2014/04/21",1017.6,1022.8,1011.2
"2014/04/22",1011.4,1014.2,1008.9
"2014/04/23",1016.2,1020.5,1013.9
"2014/04/24",1024.2,1026.4,1020.4
"2014/04/25",1025.8,1027.1,1023.9
"2014/04/26",1027.5,1029.8,1026.0
"2014/04/27",1025.6,1028.5,1022.6
"2014/04/28",1020.1,1022.8,1017.5
"2014/04/29",1019.8,1021.1,1018.4
"2014/04/30",1016.9,1019.7,1014.3
"2014/05/01",1010.6,1014.4,1006.4
"2014/05/02",1011.8,1014.0,1010.1
"2014/05/03",1011.1,1015.1,1007.4
"2014/05/04",1019.9,1023.1,1015.1
"2014/05/05",1017.6,1022.5,1013.9
"2014/05/06",1015.5,1017.9,1013.1
"2014/05/07",1018.8,1020.3,1017.3
"2014/05/08",1016.6,1019.3,1012.4
"2014/05/09",1010.9,1013.2,1006.8
"2014/05/10",1016.4,1020.9,1012.1
"2014/05/11",1022.8,1024.4,1020.6
"2014/05/12",1017.6,1023.7,1011.1
"2014/05/13",1006.6,1011.2,1003.3
"2014/05/14",1006.8,1009.6,1002.8
"2014/05/15", 996.6,1003.1, 992.4
"2014/05/16", 998.7,1002.0, 995.6
"2014/05/17",1007.2,1011.9,1001.8
"2014/05/18",1013.6,1015.9,1011.9
"2014/05/19",1015.7,1017.6,1014.1
"2014/05/20",1013.8,1016.1,1009.2
"2014/05/21", 999.0,1009.3, 991.7
"2014/05/22",1006.3,1013.8,1000.4
"2014/05/23",1017.7,1020.9,1013.6
"2014/05/24",1018.0,1021.1,1014.9
"2014/05/25",1014.1,1015.3,1012.6
"2014/05/26",1010.4,1014.1,1007.4
"2014/05/27",1003.8,1008.0,1001.0
"2014/05/28",1007.1,1008.5,1005.5
"2014/05/29",1009.4,1012.3,1007.2
"2014/05/30",1012.5,1014.0,1011.0
"2014/05/31",1012.6,1013.7,1010.9
"2014/06/01",1012.9,1014.0,1011.9
"2014/06/02",1015.3,1016.8,1013.5
"2014/06/03",1015.0,1016.4,1013.3
"2014/06/04",1014.1,1014.8,1012.8
"2014/06/05",1012.5,1014.3,1010.2
"2014/06/06",1008.8,1010.4,1007.2
"2014/06/07",1007.8,1009.5,1005.2
"2014/06/08",1007.4,1011.5,1004.6
"2014/06/09",1013.2,1015.6,1010.7
"2014/06/10",1014.2,1015.5,1012.8
"2014/06/11",1009.0,1013.3,1003.8
"2014/06/12", 995.8,1003.8, 992.2
"2014/06/13", 996.2,1002.5, 992.0
"2014/06/14",1004.3,1006.3,1002.0
"2014/06/15",1006.1,1007.3,1004.4
"2014/06/16",1006.0,1007.8,1004.3
"2014/06/17",1007.4,1008.5,1006.2
"2014/06/18",1004.8,1007.2,1003.1
"2014/06/19",1006.1,1008.7,1003.8
"2014/06/20",1009.9,1012.3,1008.5
"2014/06/21",1010.7,1012.6,1008.4
"2014/06/22",1005.6,1008.5,1003.5
"2014/06/23",1005.7,1007.1,1004.3
"2014/06/24",1007.3,1009.6,1005.9
"2014/06/25",1011.6,1013.8,1009.5
"2014/06/26",1012.9,1013.9,1011.8
"2014/06/27",1011.0,1013.1,1009.3
"2014/06/28",1005.9,1009.4,1002.7
"2014/06/29",1002.7,1007.4,1001.1
"2014/06/30",1009.8,1011.3,1007.2
"2014/07/01",1011.5,1013.1,1009.5
"2014/07/02",1012.2,1013.7,1010.5
"2014/07/03",1009.1,1011.6,1007.0
"2014/07/04",1006.4,1007.8,1005.3
"2014/07/05",1010.1,1012.9,1007.2
"2014/07/06",1012.4,1013.3,1011.2
"2014/07/07",1008.9,1011.3,1006.2
"2014/07/08",1011.3,1014.0,1007.8
"2014/07/09",1011.7,1014.5,1007.2
"2014/07/10",1002.1,1007.8, 995.2
"2014/07/11", 994.2, 999.9, 990.8
"2014/07/12",1003.9,1007.4, 999.7
"2014/07/13",1005.2,1007.5,1002.6
"2014/07/14",1006.5,1011.2,1002.3
"2014/07/15",1013.4,1014.9,1010.7
"2014/07/16",1012.4,1015.0,1008.3
"2014/07/17",1013.9,1016.8,1012.2
"2014/07/18",1014.8,1016.1,1013.3
"2014/07/19",1014.8,1016.5,1013.4
"2014/07/20",1012.4,1013.7,1011.0
"2014/07/21",1012.5,1013.9,1011.2
"2014/07/22",1009.8,1012.4,1007.4
"2014/07/23",1006.0,1008.1,1004.0
"2014/07/24",1005.4,1009.3,1003.3
"2014/07/25",1011.8,1014.8,1008.8
"2014/07/26",1011.9,1014.5,1008.3
"2014/07/27",1005.2,1008.4,1001.9
"2014/07/28",1009.7,1012.8,1006.2
"2014/07/29",1015.1,1017.1,1012.4
"2014/07/30",1017.0,1018.5,1015.8
"2014/07/31",1014.4,1016.1,1012.4
"2014/08/01",1012.0,1013.5,1009.8
"2014/08/02",1010.6,1012.3,1008.4
"2014/08/03",1009.5,1010.6,1008.2
"2014/08/04",1008.2,1009.6,1006.5
"2014/08/05",1006.9,1008.3,1005.1
"2014/08/06",1006.7,1007.8,1005.4
"2014/08/07",1007.9,1009.8,1006.2
"2014/08/08",1009.8,1011.9,1008.6
"2014/08/09",1012.7,1013.8,1011.0
"2014/08/10",1003.9,1011.4, 998.9
"2014/08/11", 999.1,1003.2, 997.3
"2014/08/12",1006.0,1009.0,1002.7
"2014/08/13",1010.6,1012.4,1008.4
"2014/08/14",1012.2,1013.0,1011.6
"2014/08/15",1008.7,1012.0,1006.3
"2014/08/16",1011.0,1014.0,1007.4
"2014/08/17",1014.9,1016.6,1013.4
"2014/08/18",1015.6,1017.2,1014.4
"2014/08/19",1014.3,1015.7,1012.8
"2014/08/20",1013.5,1015.1,1011.5
"2014/08/21",1013.0,1014.3,1011.1
"2014/08/22",1012.4,1013.9,1010.1
"2014/08/23",1012.1,1013.2,1011.1
"2014/08/24",1011.7,1012.6,1009.9
"2014/08/25",1011.2,1012.3,1010.2
"2014/08/26",1010.2,1011.9,1008.2
"2014/08/27",1015.2,1017.2,1011.6
"2014/08/28",1016.2,1017.1,1015.4
"2014/08/29",1016.4,1017.4,1015.6
"2014/08/30",1014.9,1016.2,1013.4
"2014/08/31",1015.4,1017.2,1014.3
"2014/09/01",1015.7,1017.2,1012.7
"2014/09/02",1014.9,1017.9,1012.5
"2014/09/03",1016.9,1017.9,1015.9
"2014/09/04",1015.0,1016.8,1013.6
"2014/09/05",1013.1,1014.7,1011.2
"2014/09/06",1012.9,1014.5,1011.1
"2014/09/07",1009.9,1011.4,1008.5
"2014/09/08",1008.2,1009.9,1006.3
"2014/09/09",1006.4,1009.5,1004.6
"2014/09/10",1011.2,1012.4,1009.3
"2014/09/11",1011.1,1012.1,1009.2
"2014/09/12",1011.6,1012.6,1010.1
"2014/09/13",1012.2,1013.5,1010.8
"2014/09/14",1013.9,1016.1,1012.6
"2014/09/15",1014.7,1016.5,1013.2
"2014/09/16",1012.4,1013.9,1010.1
"2014/09/17",1014.7,1016.7,1012.7
"2014/09/18",1012.5,1014.1,1010.8
"2014/09/19",1013.6,1015.3,1012.1
"2014/09/20",1014.8,1016.6,1012.6
"2014/09/21",1017.6,1019.0,1015.8
"2014/09/22",1018.5,1020.6,1016.7
"2014/09/23",1021.9,1023.9,1020.4
"2014/09/24",1017.9,1021.5,1012.5
"2014/09/25",1006.4,1012.6,1001.5
"2014/09/26",1015.7,1021.7,1009.1
"2014/09/27",1021.1,1023.4,1017.8
"2014/09/28",1013.5,1017.8,1010.2
"2014/09/29",1009.8,1011.6,1008.1
"2014/09/30",1013.4,1016.0,1011.6
"2014/10/01",1017.7,1019.4,1015.3
"2014/10/02",1015.4,1018.3,1010.7
"2014/10/03",1007.7,1011.0,1005.2
"2014/10/04",1013.9,1020.3,1007.7
"2014/10/05",1019.3,1022.6,1011.1
"2014/10/06",1000.0,1011.2, 978.7
"2014/10/07",1018.1,1022.6,1009.7
"2014/10/08",1023.2,1024.5,1022.1
"2014/10/09",1023.6,1024.9,1022.5
"2014/10/10",1020.9,1022.5,1018.8
"2014/10/11",1023.9,1026.9,1020.7
"2014/10/12",1025.4,1027.9,1021.5
"2014/10/13",1011.7,1021.6, 992.5
"2014/10/14", 998.3,1012.9, 986.2
"2014/10/15",1017.9,1020.7,1012.8
"2014/10/16",1017.1,1019.7,1014.5
"2014/10/17",1017.1,1021.8,1014.1
"2014/10/18",1024.3,1027.1,1021.5
"2014/10/19",1028.1,1029.5,1026.8
"2014/10/20",1024.9,1027.8,1022.3
"2014/10/21",1017.6,1022.5,1012.2
"2014/10/22",1013.7,1016.7,1011.1
"2014/10/23",1019.1,1021.8,1015.8
"2014/10/24",1022.6,1024.4,1020.9
"2014/10/25",1024.0,1025.4,1022.8
"2014/10/26",1020.5,1023.3,1015.7
"2014/10/27",1012.0,1015.9,1008.4
"2014/10/28",1018.8,1023.1,1014.6
"2014/10/29",1024.5,1027.2,1022.6
"2014/10/30",1027.8,1029.9,1026.6
"2014/10/31",1024.7,1027.0,1022.3
"2014/11/01",1018.1,1022.5,1011.1
"2014/11/02",1005.0,1011.2, 998.4
"2014/11/03",1005.6,1013.2, 998.2
"2014/11/04",1019.9,1025.5,1013.1
"2014/11/05",1023.6,1026.0,1020.7
"2014/11/06",1015.7,1020.8,1010.4
"2014/11/07",1018.6,1026.8,1010.0
"2014/11/08",1027.6,1029.6,1026.3
"2014/11/09",1022.0,1026.6,1016.8
"2014/11/10",1017.3,1019.7,1014.9
"2014/11/11",1016.6,1019.4,1012.7
"2014/11/12",1007.1,1012.9,1002.9
"2014/11/13",1006.4,1012.5,1003.2
"2014/11/14",1015.3,1017.3,1012.5
"2014/11/15",1020.1,1024.7,1017.2
"2014/11/16",1024.2,1026.3,1022.8
"2014/11/17",1018.9,1023.4,1014.2
"2014/11/18",1017.7,1022.2,1013.8
"2014/11/19",1024.3,1027.2,1021.8
"2014/11/20",1027.2,1028.1,1026.4
"2014/11/21",1027.7,1028.5,1027.0
"2014/11/22","  * ","  * ","  * "
"2014/11/23","  * ","  * ","  * "
"2014/11/24","  * ","  * ","  * "
"2014/11/25","  * ","  * ","  * "
"2014/11/26","  * ","  * ","  * "
"2014/11/27","  * ","  * ","  * "
"2014/11/28",1025.5,1027.4,1023.8
"2014/11/29","  * ","  * ","  * "
"2014/11/30","  * ","  * ","  * "
"2014/12/01","  * ","  * ","  * "
"2014/12/02","  * ","  * ","  * "
"2014/12/03","  * ","  * ","  * "
"2014/12/04","  * ","  * ","  * "
"2014/12/05",1005.7,1008.2,1003.7
"2014/12/06",1009.3,1012.7,1007.4
"2014/12/07",1019.9,1025.3,1012.6
"2014/12/08",1025.0,1027.1,1023.6
"2014/12/09",1024.1,1027.5,1021.3
"2014/12/10",1027.7,1030.9,1024.4
"2014/12/11",1012.4,1024.4,1005.0
"2014/12/12",1011.2,1014.3,1008.7
"2014/12/13",1010.1,1012.6,1007.1
"2014/12/14",1017.3,1020.8,1012.3
"2014/12/15",1024.5,1028.7,1020.8
"2014/12/16",1009.9,1026.7, 990.9
"2014/12/17", 998.5,1004.3, 994.4
"2014/12/18",1013.8,1025.2,1004.0
"2014/12/19",1030.1,1032.5,1025.1
"2014/12/20",1018.0,1029.3,1002.7
"2014/12/21",1009.0,1011.6,1004.6
"2014/12/22",1010.2,1012.0,1008.4
"2014/12/23",1019.8,1024.1,1011.8
"2014/12/24",1016.7,1023.3,1008.5
"2014/12/25",1013.0,1016.8,1008.3
"2014/12/26",1019.2,1022.0,1016.6
"2014/12/27",1026.6,1029.0,1021.8
"2014/12/28",1023.5,1028.1,1018.4
"2014/12/29",1009.3,1018.7,1003.3
"2014/12/30",1008.7,1010.9,1006.2
"2014/12/31",1007.0,1012.3, 995.2
